User: anonymous   Login
Location: Fort Wayne
(41.1310°N, 85.1290°W)
Time: 18:00:33
(UTC-04:00)
Language:

ISS - Orbit

View from above orbital plane
View from above orbital plane
View from above satellite
View from above satellite

Ground track
Ground track

The orbit data is extracted from the following two-line orbital elements,

1 25544U 98067A   16207.53747694  .00001245  00000-0  25403-4 0  9991
2 25544  51.6432 226.6838 0002143  79.3405  56.6885 15.54879716 10952
Epoch (UTC): 25 July 2016 12:53:58
Eccentricity: 0.0002143
inclination: 51.6432°
perigee height: 401 km
apogee height: 404 km
right ascension of ascending node: 226.6838°
argument of perigee: 79.3405°
revolutions per day: 15.54879716
mean anomaly at epoch: 56.6885°
orbit number at epoch: 1095

The dashed part of the orbit path shows where the satellite is in the earth's shadow,  

DLR